FW6148 Weather Reports


time (UTC)temp
F
wind
direction
speed
knots
gust
knots
rain 1hr
in
rain 24hr
in
rain mn
in
humidity
%
barometer
mb
20260504081537 40 267 1.7 5.2 0.00 0.02 0.00 74 1007.4
20260504081031 40 233 2.6 5.2 0.00 0.02 0.00 75 1007.3
20260504080527 41 271 2.6 3.5 0.00 0.02 0.00 73 1007.4
20260504050529 46 257 0.9 4.3 0.00 0.02 0.02 67 1006.8
20260504045524 46 248 1.7 6.1 0.00 0.02 0.02 67 1006.9
20260504045024 46 261 2.6 6.1 0.00 0.02 0.02 68 1006.9
20260504044540 45 271 2.6 6.1 0.00 0.02 0.02 70 1007.0
20260504044025 44 257 0.9 2.6 0.00 0.02 0.02 70 1007.1
20260504043524 45 257 0.9 3.5 0.00 0.02 0.02 70 1007.0
20260504043038 45 257 1.7 3.5 0.00 0.02 0.02 70 1007.1
20260504042529 44 253 0.9 2.6 0.00 0.02 0.02 72 1007.2
20260504042028 44 253 1.7 2.6 0.00 0.02 0.02 73 1007.2
20260504041539 43 253 0.0 2.6 0.00 0.02 0.02 74 1007.2
20260504041024 43 253 0.0 0.9 0.00 0.02 0.02 74 1007.2
20260504040525 43 0 0.0 0.0 0.00 0.02 0.02 74 1007.2
20260504040059 43 0 0.0 0.0 0.00 0.02 0.02 71 1007.2
20260504035525 44 0 0.0 0.9 0.00 0.02 0.02 70 1007.3
20260504035023 45 0 0.0 1.7 0.00 0.02 0.02 67 1007.4
20260504034541 46 0 0.0 1.7 0.00 0.02 0.02 67 1007.3
20260504034026 47 253 0.0 2.6 0.00 0.02 0.02 65 1007.5
20260504033528 47 253 0.9 3.5 0.00 0.02 0.02 66 1007.4
20260504033039 46 252 1.7 3.5 0.00 0.02 0.02 67 1007.4
20260504032528 45 254 1.7 3.5 0.00 0.02 0.02 68 1007.4
20260504032027 45 255 1.7 3.5 0.00 0.02 0.02 68 1007.4
20260504031539 45 257 0.9 3.5 0.00 0.02 0.02 68 1007.4
20260504031024 46 256 1.7 3.5 0.00 0.02 0.02 67 1007.4
20260504030524 46 248 0.0 4.3 0.00 0.02 0.02 66 1007.4
20260504030038 48 0 0.0 4.3 0.00 0.02 0.02 65 1007.4
20260504025526 49 232 2.6 4.3 0.00 0.02 0.02 62 1007.4
20260504025027 49 253 1.7 4.3 0.00 0.02 0.02 62 1007.4
20260504024547 49 250 1.7 3.5 0.00 0.02 0.02 62 1007.4
20260504024030 49 239 1.7 3.5 0.00 0.02 0.02 64 1007.5
20260504023527 49 239 1.7 3.5 0.00 0.02 0.02 63 1007.4
20260504023045 50 0 0.0 2.6 0.00 0.02 0.02 63 1007.4
20260504022524 51 257 0.9 2.6 0.00 0.02 0.02 61 1007.3
20260504022025 52 257 0.9 4.3 0.00 0.02 0.02 61 1007.3
20260504021540 53 257 1.7 4.3 0.00 0.02 0.02 57 1007.4
20260504021026 55 223 1.7 4.3 0.00 0.02 0.02 56 1007.3
20260504020524 57 167 0.9 2.6 0.00 0.02 0.02 52 1007.2
20260504020039 59 0 0.0 0.0 0.00 0.02 0.02 48 1007.3
20260504015525 61 0 0.0 0.0 0.00 0.02 0.02 48 1007.3
20260504015025 63 0 0.0 0.0 0.00 0.02 0.02 48 1007.3
20260504014550 63 0 0.0 0.0 0.00 0.02 0.02 45 1007.4
20260504014024 63 0 0.0 0.0 0.00 0.02 0.02 41 1007.4
20260504013524 64 0 0.0 2.6 0.00 0.02 0.02 42 1007.5
20260504013038 64 0 0.0 3.5 0.00 0.02 0.02 41 1007.5
20260504012527 64 98 1.7 3.5 0.00 0.02 0.02 39 1007.6
20260504012027 64 98 0.9 5.2 0.00 0.02 0.02 40 1007.6
20260504011535 65 112 0.9 6.1 0.00 0.02 0.02 40 1007.6
20260504011026 65 116 2.6 6.1 0.00 0.02 0.02 40 1007.7
20260504010524 66 78 0.9 4.3 0.00 0.02 0.02 41 1007.7
20260504010049 66 79 0.9 5.2 0.00 0.02 0.02 39 1007.8
20260504005525 66 67 1.7 5.2 0.00 0.02 0.02 38 1007.7
20260504005025 66 67 1.7 7.8 0.00 0.02 0.02 39 1007.7
20260504004545 67 69 1.7 7.8 0.00 0.02 0.02 40 1007.8
20260504004024 67 103 2.6 9.6 0.00 0.02 0.02 36 1007.8
20260504003527 67 113 3.5 9.6 0.00 0.02 0.02 34 1007.8
20260504003038 68 95 3.5 8.7 0.00 0.02 0.02 37 1007.9
20260504002524 68 65 3.5 9.6 0.00 0.02 0.02 34 1008.0
20260504002027 68 68 2.6 9.6 0.00 0.02 0.02 35 1008.1
20260504001546 68 87 4.3 9.6 0.00 0.02 0.02 34 1008.1
20260504001024 68 92 5.2 10.4 0.00 0.02 0.02 32 1008.2
20260504000523 68 63 6.1 12.2 0.00 0.02 0.02 37 1008.1
20260504000038 68 98 4.3 13.0 0.00 0.02 0.02 37 1008.3
20260503235525 68 63 7.0 13.0 0.00 0.02 0.02 38 1008.3
20260503235027 68 67 4.3 12.2 0.00 0.02 0.02 35 1008.2
20260503234541 68 76 4.3 13.0 0.00 0.02 0.02 37 1008.4
20260503234025 68 107 5.2 13.0 0.00 0.02 0.02 36 1008.3
20260503233525 68 104 5.2 13.0 0.00 0.02 0.02 39 1008.4
20260503233042 69 57 7.0 12.2 0.00 0.02 0.02 40 1008.4
20260503232526 69 78 5.2 9.6 0.00 0.02 0.02 39 1008.4
20260503232024 68 104 4.3 10.4 0.00 0.02 0.02 40 1008.5
20260503231539 68 57 7.0 13.9 0.00 0.02 0.02 40 1008.6
20260503231025 68 103 7.8 13.9 0.00 0.02 0.02 41 1008.6
20260503230525 68 113 7.0 12.2 0.00 0.02 0.02 40 1008.6
20260503230038 68 63 7.0 12.2 0.00 0.02 0.02 43 1008.5
20260503225525 68 109 5.2 11.3 0.00 0.02 0.02 43 1008.6
20260503225024 68 64 5.2 13.9 0.00 0.02 0.02 43 1008.6
20260503224538 68 103 4.3 13.9 0.00 0.02 0.02 43 1008.7
20260503224027 68 80 7.0 13.9 0.00 0.02 0.02 43 1008.7
20260503223528 68 77 2.6 8.7 0.00 0.02 0.02 42 1008.8
20260503223043 68 80 4.3 8.7 0.00 0.02 0.02 46 1008.8
20260503222523 67 91 4.3 9.6 0.00 0.02 0.02 45 1008.9
20260503222026 67 54 5.2 9.6 0.00 0.02 0.02 44 1009.0
20260503221551 67 54 4.3 9.6 0.00 0.02 0.02 41 1009.1
20260503221026 68 100 4.3 10.4 0.00 0.02 0.02 46 1009.2
20260503220528 67 53 4.3 10.4 0.00 0.02 0.02 44 1009.2
20260503220040 67 55 5.2 12.2 0.00 0.02 0.02 43 1009.4
20260503215524 67 49 4.3 12.2 0.00 0.02 0.02 42 1009.4
20260503215024 67 64 2.6 9.6 0.00 0.02 0.02 43 1009.5
20260503214537 67 57 3.5 9.6 0.00 0.02 0.02 49 1009.7
20260503214027 67 50 2.6 10.4 0.00 0.02 0.02 45 1009.7
20260503213524 67 65 2.6 10.4 0.00 0.02 0.02 43 1009.9
20260503213037 67 88 5.2 10.4 0.00 0.02 0.02 43 1010.1
20260503212527 67 61 1.7 9.6 0.00 0.02 0.02 45 1010.1
20260503212027 67 34 2.6 9.6 0.00 0.02 0.02 45 1010.3
20260503211545 67 340 2.6 9.6 0.00 0.02 0.02 43 1010.3
20260503211029 67 55 4.3 11.3 0.00 0.02 0.02 44 1010.6
20260503210531 67 321 1.7 11.3 0.00 0.02 0.02 48 1010.7
20260503210041 67 345 4.3 10.4 0.00 0.02 0.02 44 1010.7
20260503205524 66 30 2.6 14.8 0.00 0.02 0.02 48 1010.7
20260503205025 66 92 7.0 14.8 0.00 0.02 0.02 46 1011.0
20260503204542 65 65 9.6 14.8 0.00 0.02 0.02 47 1011.0
20260503204027 63 63 6.1 12.2 0.00 0.02 0.02 44 1011.1
20260503203528 64 51 7.0 12.2 0.00 0.02 0.02 42 1011.2
20260503203038 64 85 6.1 13.0 0.00 0.02 0.02 45 1011.0
20260503202524 64 91 5.2 13.0 0.00 0.02 0.02 44 1011.1
20260503202024 66 66 7.8 13.0 0.00 0.02 0.02 42 1011.2
20260503201537 65 54 3.5 8.7 0.00 0.02 0.02 45 1011.2
20260503201025 66 88 3.5 12.2 0.00 0.02 0.02 41 1011.3
20260503200524 65 88 4.3 13.0 0.00 0.02 0.02 52 1011.4
20260503200037 65 49 7.8 13.0 0.00 0.02 0.02 46 1011.3
20260503195523 66 45 4.3 12.2 0.00 0.02 0.02 45 1011.3
20260503195030 66 51 4.3 12.2 0.00 0.02 0.02 46 1011.4
20260503194542 66 42 7.0 12.2 0.00 0.02 0.02 44 1011.5
20260503194027 66 49 3.5 11.3 0.00 0.02 0.02 46 1011.5
20260503193526 66 100 7.0 11.3 0.00 0.02 0.02 47 1011.5
20260503193044 65 102 5.2 8.7 0.00 0.02 0.02 45 1011.6
20260503192524 65 111 4.3 11.3 0.00 0.02 0.02 45 1011.6
20260503192026 65 46 3.5 11.3 0.00 0.02 0.02 46 1011.7
20260503191538 65 36 7.0 11.3 0.00 0.02 0.02 44 1011.8
20260503191027 65 74 3.5 8.7 0.00 0.02 0.02 51 1012.0
20260503190524 64 132 4.3 8.7 0.00 0.02 0.02 44 1012.0
20260503190041 64 75 2.6 9.6 0.00 0.02 0.02 44 1012.0
20260503185527 65 96 5.2 9.6 0.00 0.02 0.02 47 1012.1
20260503185024 64 0 0.0 8.7 0.00 0.02 0.02 42 1012.2
20260503184545 64 27 4.3 8.7 0.00 0.02 0.02 48 1012.3
20260503184026 64 0 1.7 6.1 0.00 0.02 0.02 44 1012.3
20260503183525 64 0 1.7 7.8 0.00 0.02 0.02 41 1012.4
20260503183053 64 51 3.5 7.8 0.00 0.02 0.02 42 1012.3
20260503182524 64 28 0.9 7.8 0.00 0.02 0.02 45 1012.5
20260503182027 64 38 1.7 6.1 0.00 0.02 0.02 48 1012.7
20260503181549 64 46 0.9 11.3 0.00 0.02 0.02 44 1012.7
20260503181024 64 33 1.7 11.3 0.00 0.02 0.02 51 1012.9
20260503180524 64 104 0.9 3.5 0.00 0.02 0.02 47 1012.9
20260503180038 64 62 0.9 3.5 0.00 0.02 0.02 47 1013.0
20260503175525 64 325 1.7 3.5 0.00 0.02 0.02 47 1013.0
20260503175025 63 0 0.9 6.1 0.00 0.02 0.02 51 1013.0
20260503174544 63 191 0.9 6.1 0.00 0.02 0.02 49 1013.0
20260503174028 62 0 0.0 6.1 0.00 0.02 0.02 50 1013.1
20260503173524 62 257 1.7 6.1 0.00 0.02 0.02 55 1013.2
20260503173047 61 247 1.7 5.2 0.00 0.02 0.02 53 1013.3
20260503172531 61 265 1.7 5.2 0.00 0.02 0.02 56 1013.3
20260503172029 60 223 2.6 6.1 0.01 0.02 0.02 54 1013.3
20260503171539 59 254 0.0 6.1 0.02 0.02 0.02 60 1013.3
20260503171025 59 253 1.7 5.2 0.02 0.02 0.02 55 1013.3
20260503170525 58 294 0.9 3.5 0.02 0.02 0.02 57 1013.3
20260503150527 56 281 4.3 8.7 0.00 0.00 0.00 56 1013.8
20260503131033 47 360 4.3 9.6 0.00 0.00 0.00 70 1014.7
20260503130527 46 282 6.1 9.6 0.00 0.00 0.00 71 1014.6
20260503110533 40 228 3.5 6.1 0.00 0.00 0.00 83 1015.2